Delta Virtual Airport Information Service

Indianapolis International Airport

ICAO: KIND Country: United States
Latitude: 39.7173 Longitude: -86.2946
Latest Arrival : DAC4679 (KDTW-KIND) Latest Departure : FDX636831 (KIND-KMEM)


WX CaptureLIVE
Data provided by noaa.gov | Fetched at 03:55:57

METAR : KIND 030854Z 09005KT 10SM SCT110 04/01 A3005 RMK AO2 SLP178 T00440006 50002

TAF : KIND 030820Z 0308/0412 07004KT P6SM SCT120 FM031200 06005KT P6SM FEW250 FM031500 11008KT P6SM FEW250


Runway Data for KIND
Data provided by openaviationdata.com

Runway ID Mag Var Hdg Length Elevation Surface ILS Freq ILS Id ILS Slope
05L -2 46° 11197 ft 797 ft Concrete 111.75 IIND 3
05R -2 46° 9998 ft 797 ft Concrete 111.15 IOQV 3
14 -2 136° 7602 ft 797 ft Asphalt 110.5 IBJP 3
23L -2 226° 9998 ft 797 ft Concrete 111.15 IFVJ 3
23R -2 226° 11197 ft 797 ft Concrete 111.75 IUZK 3
32 -2 316° 7602 ft 797 ft Asphalt 110.5 ICOA 3

Indianapolis International Airport, United States
Use only for reference purposes



Not for navigational purposes.